CZ-6A DEB, 56597

Orbit data source: Space-Track

CZ-6A DEB, 56597 is space debris in SSO originally from a launch on Fri, 11 Nov 2022 UTC launched from the Taiyaun Space Center, China (TSC). Debris objects in space refer to the collection of defunct objects orbiting the Earth. Examples of debris include non-operational satellites, rocket bodies, and fragments generated from explosions, collisions, or faulty payload assembly.

Loading next visibility...
Identifier
56597, 2022-151ADV
Orbit
SSO
Country
Flag of CNCN / PRC
Related business
Manufacturer
SAST
Mission
Spacecraft
Bus & Motor
Unknown
Mass
Unknown
Launch date (UTC)
2022-11-11 (4 years ago)
Launch vehicle
Unknown
Launch site
Taiyaun Space Center, China (TSC)
Object type
Payload
Rocket body
Debris
Shape & HBR
Unknown shape, 0.1 m
Radar Cross Section
Small (<0.1 m²)

Expand to show TLE details & history
Last TLE update: 4 days ago

TLE from 4 days ago
0 CZ-6A DEB
1 56597U 22151ADV 26169.83096694  .00002352  00000-0  10562-2 0  9990
2 56597  98.9128 195.7479 0101571 254.7001 104.2931 14.20683873162604
Epoch: 2026-06-18T19:56Z
TLE epoch observation values (Epoch: 2026-06-18T19:56:35.543Z)
Latitude
Longitude
-10.46885°
Altitude
844.706 km
Speed
7.421 km/s
True Right ascension
13h 02m 59s
True Declination
0° 00' 00"
Sunlit
Object was in daylight at epoch
Visualization orbit readout
Latitude
Unknown
Longitude
Unknown
Altitude
Unknown
Speed
Unknown
Apparent Right ascension
Unknown
Apparent Declination
Unknown
Sunlit
N/A
Visualization observer readout
Local Sidereal Time
23:18:46
Azimuth
Unknown
Elevation
Unknown
Doppler factor
Unknown
Orbital elements
Apogee altitude
893.322 km
Perigee altitude
747.094 km
Semi-major axis
7,198.345 km
Eccentricity
0.01016
Inclination
98.9128°
RAAN
195.7479°
Arg. of periapsis
254.7001°
True anomaly
105.41739°
Mean anomaly
104.2931°
Eccentric anomaly
104.85561°
Mean motion
3.55381 °/min
Orbital period
101.3 mins
BSTAR
0.0010562
Loading maneuver chart data...
Computing Atmospheric mass density...
Loading historical data...
Loading historical data...
Loading historical data...
Loading historical data...
Loading historical data...
Loading historical data...
Loading historical data...

Documentation

Showing up to 5 results
|